[Date Prev][Date Next][Thread Prev][Thread Next] - [Date Index][Thread Index][Author Index]

2 Line ISS Keps 5-28



ISS
1 25544U 98067A   03148.17585890  .00012427  00000-0  15934-3 0   531
2 25544  51.6300 120.7906 0005890 162.1251 287.2160 15.59561013257884


----
Via the sarex mailing list at AMSAT.ORG courtesy of AMSAT-NA.
To unsubscribe, send "unsubscribe sarex" to Majordomo@amsat.org



AMSAT Top AMSAT Home